Content
SEND FEEDBACK

Daily
Averages
Monthly
Summary
Canada

VANCOUVER, BRITISH COLUMBIA


Home > North America > Canada > British Columbia
Elevation: 7 feet     Latitude: 49 11N     Longitude: 123 10W

WEATHER
 
SELECT A DAY
Number of Records: 249,842;   Date Range: 5/15/97 - 9/17/14
 
SHARE

PRINT THIS DATA

[ ← Previous Day ]
WEATHER ALMANAC - SEPTEMBER 24, 2013
[ Next Day → ]
[ °C ]   °F
Weather ElementAverageHighLow
Temperature52.3 °F59 °F (12:55 pm)48.2 °F (10:55 pm)
Dewpoint49.2 °F51.8 °F (12:15 pm)46.4 °F (12:35 am)
Humidity89.7 %100 % (3:55 am)72 % (12:55 pm)
Barometer29.88 in29.93 in (12:35 am)29.83 in (6:35 pm)
Wind Speed3.6 mph10.4 mph (12:35 am)
Weather ElementAverage
Visibility9.3 mi
Wind DirectionESE (115.8 °)

Weather ElementTotal
Precipitation0.09 in
Heating Degree Days11.4 (Base 65)
Growing Degree Days3.6 (Base 50)
Averaged from 71 records on September 24, 2013
WEATHER CONDITIONS BREAKOUT
WIND DIRECTION BREAKOUT
WEATHER BY HOUR - SEPTEMBER 24, 2013
[ °C ]   °F
Local TimeTemperatureDewpointHumidityBarometerVisibilityWind DirectionWind SpeedGust SpeedPrecipitationEventsConditions
12:35 AM50.0 °F46.4 °F87 %29.93 in10.0 miSouth (190°)10.4 mphClear
12:55 AM51.8 °F46.4 °F82 %29.93 in10.0 miSouth (190°)8.1 mphPartly Cloudy
1:15 AM51.8 °F48.2 °F88 %29.92 in10.0 miSSW (200°)9.2 mphPartly Cloudy
1:35 AM50.0 °F48.2 °F94 %29.92 in10.0 miSouth (190°)10.4 mphClear
1:55 AM50.0 °F48.2 °F94 %29.93 in10.0 miSouth (190°)9.2 mphPartly Cloudy
2:15 AM51.8 °F48.2 °F88 %29.93 in10.0 miSouth (180°)6.9 mphPartly Cloudy
2:35 AM51.8 °F48.2 °F88 %29.93 in10.0 miSouth (190°)9.2 mphClear
2:55 AM51.8 °F48.2 °F88 %29.92 in10.0 miSouth (180°)6.9 mphClear
3:15 AM51.8 °F48.2 °F88 %29.92 in10.0 miSouth (190°)10.4 mphClear
3:35 AM50.0 °F48.2 °F94 %29.92 in10.0 miSSW (200°)8.1 mphPartly Cloudy
3:55 AM50.0 °F50.0 °F100 %29.92 in10.0 miSSW (200°)8.1 mphClear
4:15 AM51.8 °F50.0 °F94 %29.92 in10.0 miSSW (210°)9.2 mphClear
4:35 AM51.8 °F48.2 °F88 %29.92 in10.0 miSSW (210°)8.1 mphPartly Cloudy
4:55 AM51.8 °F50.0 °F94 %29.91 in10.0 miSouth (190°)6.9 mphPartly Cloudy
5:15 AM51.8 °F48.2 °F88 %29.91 in10.0 miSouth (190°)8.1 mphClear
5:35 AM51.8 °F48.2 °F88 %29.91 in10.0 miSouth (190°)5.8 mphClear
5:55 AM51.8 °F48.2 °F88 %29.91 in10.0 miSouth (190°)5.8 mphRainLight Rain
6:15 AM50.0 °F48.2 °F94 %29.91 in10.0 miSouth (170°)3.5 mphPartly Cloudy
6:35 AM50.0 °F50.0 °F100 %29.91 in10.0 miSouth (180°)5.8 mphRainLight Rain
6:55 AM50.0 °F50.0 °F100 %29.90 in10.0 miSouth (180°)5.8 mphScattered Clouds
7:15 AM50.0 °F50.0 °F100 %29.90 in10.0 miSouth (190°)8.1 mphRainLight Rain
7:35 AM50.0 °F50.0 °F100 %29.90 in10.0 miSSW (200°)9.2 mphPartly Cloudy
7:55 AM50.0 °F50.0 °F100 %29.90 in3.0 miSSW (200°)6.9 mphRainRain
8:15 AM50.0 °F50.0 °F100 %29.91 in2.5 miSouth (190°)3.5 mph0.03 inRainRain
8:35 AM50.0 °F50.0 °F100 %29.91 in5.0 miCalm0.03 inRainRain
8:55 AM50.0 °F50.0 °F100 %29.90 in3.0 miCalm0.03 inRainLight Rain
9:15 AM50.0 °F50.0 °F100 %29.90 in5.0 miCalmRainLight Rain
9:35 AM50.0 °F50.0 °F100 %29.90 in3.0 miCalmRainLight Rain
9:55 AM50.0 °F50.0 °F100 %29.90 in3.0 miCalmRainLight Rain
10:15 AM51.8 °F50.0 °F94 %29.90 in9.0 miCalmRainLight Rain
10:35 AM51.8 °F50.0 °F94 %29.90 in10.0 miCalmScattered Clouds
10:55 AM53.6 °F50.0 °F88 %29.90 in10.0 miCalmMostly Cloudy
11:15 AM55.4 °F50.0 °F82 %29.89 in10.0 miSSW (200°)4.6 mphMostly Cloudy
11:35 AM55.4 °F50.0 °F82 %29.89 in10.0 miSouth (170°)4.6 mphScattered Clouds
11:55 AM55.4 °F50.0 °F82 %29.88 in10.0 miESE (110°)3.5 mphPartly Cloudy
12:15 PM55.4 °F51.8 °F88 %29.87 in10.0 miSSW (200°)6.9 mphPartly Cloudy
12:35 PM57.2 °F50.0 °F77 %29.87 in10.0 miSSW (200°)4.6 mphPartly Cloudy
12:55 PM59.0 °F50.0 °F72 %29.86 in10.0 miSouth (170°)4.6 mphPartly Cloudy
1:15 PM57.2 °F50.0 °F77 %29.86 in10.0 miSSW (210°)5.8 mphClear
1:35 PM57.2 °F50.0 °F77 %29.86 in10.0 miNorth (360°)4.6 mphMostly Cloudy
1:55 PM55.4 °F50.0 °F82 %29.86 in10.0 miCalmScattered Clouds
2:15 PM55.4 °F50.0 °F82 %29.85 in10.0 miCalmClear
2:35 PM55.4 °F50.0 °F82 %29.85 in10.0 miNorth (350°)4.6 mphClear
2:55 PM55.4 °F50.0 °F82 %29.85 in10.0 miNNW (330°)3.5 mphClear
3:15 PM55.4 °F50.0 °F82 %29.84 in10.0 miNNW (340°)4.6 mphRainLight Rain
3:35 PM57.2 °F50.0 °F77 %29.84 in10.0 miNW (310°)4.6 mphRainLight Rain
3:55 PM55.4 °F48.2 °F77 %29.84 in10.0 miNorth (350°)3.5 mphClear
4:15 PM55.4 °F48.2 °F77 %29.84 in10.0 miCalmClear
4:35 PM55.4 °F48.2 °F77 %29.84 in10.0 miCalmClear
4:55 PM55.4 °F50.0 °F82 %29.84 in10.0 miCalmPartly Cloudy
5:15 PM55.4 °F48.2 °F77 %29.84 in10.0 miCalmScattered Clouds
5:35 PM55.4 °F48.2 °F77 %29.84 in10.0 miCalmClear
5:55 PM55.4 °F48.2 °F77 %29.84 in10.0 miCalmPartly Cloudy
6:15 PM53.6 °F48.2 °F82 %29.84 in10.0 miCalmPartly Cloudy
6:35 PM53.6 °F48.2 °F82 %29.83 in10.0 miCalmClear
6:55 PM53.6 °F48.2 °F82 %29.84 in10.0 miCalmClear
7:15 PM50.0 °F48.2 °F94 %29.84 in10.0 miCalmClear
7:35 PM50.0 °F48.2 °F94 %29.84 in10.0 miCalmPartly Cloudy
7:55 PM50.0 °F48.2 °F94 %29.84 in10.0 miCalmScattered Clouds
8:15 PM50.0 °F48.2 °F94 %29.85 in9.0 miCalmMostly Cloudy
8:35 PM50.0 °F48.2 °F94 %29.85 in10.0 miCalmOvercast
8:55 PM50.0 °F50.0 °F100 %29.85 in10.0 miCalmRainLight Rain
9:15 PM50.0 °F50.0 °F100 %29.85 in9.0 miCalmScattered Clouds
9:35 PM50.0 °F50.0 °F100 %29.85 in10.0 miCalmPartly Cloudy
9:55 PM50.0 °F50.0 °F100 %29.85 in10.0 miCalmClear
10:15 PM50.0 °F50.0 °F100 %29.86 in10.0 miCalmClear
10:35 PM50.0 °F48.2 °F94 %29.86 in10.0 miCalmPartly Cloudy
10:55 PM48.2 °F48.2 °F100 %29.85 in10.0 miCalmScattered Clouds
11:15 PM50.0 °F50.0 °F100 %29.86 in10.0 miCalmOvercast
11:35 PM51.8 °F50.0 °F94 %29.86 in10.0 miNorthOvercast
11:55 PM51.8 °F50.0 °F94 %29.85 in10.0 miNNW (330°)9.2 mphOvercast
Hourly data recorded from CZBB, located miles away from Vancouver, British Columbia







STORIES FROM OUR PARTNERS